LIGHTCUBE (56314 NORAD) Tracking and Keplerian Element Data

This shows tracking and keplerian element data for the satellite.

Feedback or suggestion? Click here.




ElementValue
Catalog56314
NameLIGHTCUBE
Epoch Orbit200
Epoch Day126.98037334
Epoch Year2023
RAAN172.6303
Inclination51.6374
Eccentricity0.000763
Argument of Perigee303.2733
Mean Anonmoly56.7525
Mean Motion15.52286155
Decay Rate0.00072726
L11 56314U 98067VF 23126.98037334 .00072726 00000+0 11701-2 0 9995
L22 56314 51.6374 172.6303 0007630 303.2733 56.7525 15.52286155 2008



Live tracking and technical data element details for LIGHTCUBE (NORAD 56314). LIGHTCUBE can be tracked NOW for your location showing map with azimuth and elevation plus other details from your city location.







IsCatalogInMostPopularTable: catalog: 56314, numindb: 9
Update: records affected: 1



GetName: 56314 LIGHTCUBE

Hit Count: updated at: Wed, 07 Jun 2023 07:59:15 GMT